| time (UTC) | temp F | wind direction | speed MPH | gust MPH | rain 1hr in | rain 24hr in | rain mn in | humidity % | barometer mb |
| 20260507144521 | 46 | 287 | 1.0 | 4.0 | 0.00 | 0.00 | 0.00 | 35 | 1013.0 |
| 20260507143517 | 46 | 261 | 1.0 | 4.0 | 0.00 | 0.00 | 0.00 | 38 | 1013.0 |
| 20260507142529 | 45 | 327 | 1.0 | 4.0 | 0.00 | 0.00 | 0.00 | 40 | 1013.1 |
| 20260507141525 | 45 | 309 | 1.0 | 3.0 | 0.00 | 0.00 | 0.00 | 41 | 1013.0 |
| 20260507140602 | 45 | 0 | 0.0 | 4.0 | 0.00 | 0.00 | 0.00 | 40 | 1013.0 |
| 20260507135519 | 44 | 266 | 1.0 | 6.0 | 0.00 | 0.00 | 0.00 | 47 | 1013.0 |
| 20260507134515 | 43 | 298 | 1.0 | 4.0 | 0.00 | 0.00 | 0.00 | 51 | 1013.0 |
| 20260507133547 | 43 | 20 | 1.0 | 4.0 | 0.00 | 0.00 | 0.00 | 50 | 1013.1 |
| 20260507132604 | 44 | 315 | 1.0 | 4.0 | 0.00 | 0.00 | 0.00 | 51 | 1013.1 |
| 20260507131520 | 44 | 270 | 0.0 | 2.0 | 0.00 | 0.00 | 0.00 | 52 | 1013.1 |
| 20260507130517 | 45 | 238 | 0.0 | 3.0 | 0.00 | 0.00 | 0.00 | 55 | 1013.2 |
| 20260507125529 | 44 | 270 | 0.0 | 3.0 | 0.00 | 0.00 | 0.00 | 60 | 1013.1 |
| 20260507124525 | 42 | 265 | 0.0 | 2.0 | 0.00 | 0.00 | 0.00 | 69 | 1013.1 |
| 20260507123542 | 37 | 0.0 | 1.0 | 0.00 | 0.00 | 0.00 | 73 | 1013.3 | |
| 20260507122519 | 35 | 0.0 | 1.0 | 0.00 | 0.00 | 0.00 | 69 | 1013.2 | |
| 20260507121515 | 33 | 0.0 | 0.0 | 0.00 | 0.00 | 0.00 | 70 | 1013.3 | |
| 20260507120527 | 32 | 0.0 | 0.0 | 0.00 | 0.00 | 0.00 | 71 | 1013.2 | |
| 20260507115604 | 32 | 0.0 | 0.0 | 0.00 | 0.00 | 0.00 | 71 | 1013.2 | |
| 20260507114540 | 32 | 0.0 | 0.0 | 0.00 | 0.00 | 0.00 | 71 | 1013.2 | |
| 20260507113537 | 32 | 0.0 | 0.0 | 0.00 | 0.00 | 0.00 | 71 | 1013.0 | |
| 20260507112548 | 31 | 0.0 | 0.0 | 0.00 | 0.00 | 0.00 | 70 | 1013.0 | |
| 20260507111525 | 31 | 0.0 | 0.0 | 0.00 | 0.00 | 0.00 | 70 | 1012.9 | |
| 20260507110602 | 31 | 0.0 | 0.0 | 0.00 | 0.00 | 0.00 | 70 | 1013.0 | |
| 20260507105518 | 31 | 0.0 | 0.0 | 0.00 | 0.00 | 0.00 | 70 | 1013.0 | |
| 20260507104515 | 31 | 0.0 | 0.0 | 0.00 | 0.00 | 0.00 | 70 | 1013.0 | |
| 20260507103526 | 31 | 0.0 | 0.0 | 0.00 | 0.00 | 0.00 | 69 | 1012.9 | |
| 20260507102523 | 32 | 0.0 | 0.0 | 0.00 | 0.00 | 0.00 | 68 | 1013.0 | |
| 20260507101520 | 32 | 0.0 | 0.0 | 0.00 | 0.00 | 0.00 | 68 | 1012.9 | |
| 20260507100516 | 32 | 0.0 | 0.0 | 0.00 | 0.00 | 0.00 | 67 | 1013.0 | |
| 20260507095528 | 32 | 0.0 | 0.0 | 0.00 | 0.00 | 0.00 | 67 | 1013.0 | |
| 20260507094525 | 32 | 0.0 | 0.0 | 0.00 | 0.00 | 0.00 | 67 | 1013.1 | |
| 20260507093521 | 32 | 0.0 | 0.0 | 0.00 | 0.00 | 0.00 | 66 | 1013.1 | |
| 20260507092518 | 33 | 0.0 | 0.0 | 0.00 | 0.00 | 0.00 | 66 | 1013.1 | |
| 20260507091515 | 33 | 0.0 | 0.0 | 0.00 | 0.00 | 0.00 | 64 | 1013.1 | |
| 20260507090527 | 33 | 0.0 | 0.0 | 0.00 | 0.00 | 0.00 | 63 | 1013.2 | |
| 20260507085523 | 33 | 0.0 | 0.0 | 0.00 | 0.00 | 0.00 | 63 | 1013.1 | |
| 20260507084520 | 33 | 0.0 | 0.0 | 0.00 | 0.00 | 0.00 | 62 | 1013.0 | |
| 20260507083517 | 33 | 0.0 | 0.0 | 0.00 | 0.00 | 0.00 | 62 | 1013.0 | |
| 20260507082528 | 33 | 0.0 | 0.0 | 0.00 | 0.00 | 0.00 | 61 | 1013.1 | |
| 20260507081525 | 33 | 0.0 | 0.0 | 0.00 | 0.00 | 0.00 | 60 | 1013.1 | |
| 20260507080542 | 34 | 0.0 | 0.0 | 0.00 | 0.00 | 0.00 | 60 | 1013.1 | |
| 20260507075516 | 34 | 0.0 | 0.0 | 0.00 | 0.00 | 0.00 | 59 | 1013.1 | |
| 20260507074528 | 35 | 0.0 | 0.0 | 0.00 | 0.00 | 0.00 | 58 | 1013.1 | |
| 20260507073545 | 35 | 0.0 | 0.0 | 0.00 | 0.00 | 0.00 | 58 | 1013.1 | |
| 20260507072522 | 35 | 0.0 | 0.0 | 0.00 | 0.00 | 0.00 | 57 | 1013.3 | |
| 20260507071518 | 35 | 0.0 | 0.0 | 0.00 | 0.00 | 0.00 | 56 | 1013.4 | |
| 20260507070515 | 36 | 0.0 | 0.0 | 0.00 | 0.00 | 0.00 | 55 | 1013.4 | |
| 20260507065527 | 36 | 0.0 | 0.0 | 0.00 | 0.00 | 0.00 | 57 | 1013.5 | |
| 20260507064523 | 37 | 0.0 | 0.0 | 0.00 | 0.00 | 0.00 | 57 | 1013.6 | |
| 20260507063520 | 37 | 0.0 | 0.0 | 0.00 | 0.00 | 0.00 | 56 | 1013.7 | |
| 20260507062517 | 38 | 0.0 | 0.0 | 0.00 | 0.00 | 0.00 | 55 | 1013.7 | |
| 20260507061529 | 38 | 0.0 | 0.0 | 0.00 | 0.00 | 0.00 | 54 | 1013.8 | |
| 20260507060525 | 39 | 0.0 | 0.0 | 0.00 | 0.00 | 0.00 | 54 | 1013.8 | |
| 20260507055522 | 39 | 0.0 | 0.0 | 0.00 | 0.00 | 0.00 | 53 | 1013.9 | |
| 20260507054519 | 40 | 0.0 | 0.0 | 0.00 | 0.00 | 0.00 | 52 | 1013.9 | |
| 20260507053515 | 41 | 0.0 | 0.0 | 0.00 | 0.00 | 0.00 | 51 | 1013.9 | |
| 20260507052547 | 41 | 0.0 | 0.0 | 0.00 | 0.00 | 0.00 | 51 | 1014.0 | |
| 20260507051524 | 41 | 0.0 | 0.0 | 0.00 | 0.00 | 0.00 | 50 | 1014.0 | |
| 20260507050520 | 41 | 0.0 | 0.0 | 0.00 | 0.00 | 0.00 | 50 | 1014.0 | |
| 20260507045536 | 41 | 0.0 | 0.0 | 0.00 | 0.00 | 0.00 | 51 | 1014.1 | |
| 20260507044529 | 41 | 0.0 | 0.0 | 0.00 | 0.00 | 0.00 | 51 | 1014.1 | |
| 20260507043525 | 41 | 0.0 | 0.0 | 0.00 | 0.00 | 0.00 | 51 | 1014.2 | |
| 20260507042522 | 41 | 0.0 | 0.0 | 0.00 | 0.00 | 0.00 | 52 | 1014.3 | |
| 20260507041518 | 41 | 0.0 | 0.0 | 0.00 | 0.00 | 0.00 | 51 | 1014.5 | |
| 20260507040516 | 41 | 0.0 | 0.0 | 0.00 | 0.00 | 0.00 | 51 | 1014.4 | |
| 20260507035546 | 41 | 0.0 | 0.0 | 0.00 | 0.00 | 0.00 | 51 | 1014.5 | |
| 20260507034543 | 41 | 0.0 | 0.0 | 0.00 | 0.00 | 0.00 | 50 | 1014.5 | |
| 20260507033520 | 41 | 0.0 | 0.0 | 0.00 | 0.00 | 0.00 | 50 | 1014.6 | |
| 20260507032517 | 41 | 0.0 | 0.0 | 0.00 | 0.00 | 0.00 | 50 | 1014.6 | |
| 20260507031528 | 41 | 0.0 | 0.0 | 0.00 | 0.00 | 0.00 | 49 | 1014.7 | |
| 20260507030525 | 41 | 0.0 | 0.0 | 0.00 | 0.00 | 0.00 | 48 | 1014.7 | |
| 20260507025522 | 41 | 0.0 | 0.0 | 0.00 | 0.00 | 0.00 | 46 | 1014.8 | |
| 20260507024518 | 41 | 0.0 | 0.0 | 0.00 | 0.00 | 0.00 | 45 | 1014.9 | |
| 20260507023535 | 42 | 0.0 | 0.0 | 0.00 | 0.00 | 0.00 | 43 | 1014.9 | |
| 20260507022527 | 42 | 0.0 | 1.0 | 0.00 | 0.00 | 0.00 | 41 | 1014.9 | |
| 20260507021523 | 42 | 0.0 | 1.0 | 0.00 | 0.00 | 0.00 | 41 | 1014.9 | |
| 20260507020520 | 43 | 0.0 | 1.0 | 0.00 | 0.00 | 0.00 | 40 | 1015.0 | |
| 20260507015529 | 43 | 0.0 | 2.0 | 0.00 | 0.00 | 0.00 | 39 | 1014.9 | |
| 20260507014526 | 44 | 0.0 | 1.0 | 0.00 | 0.00 | 0.00 | 38 | 1014.9 | |
| 20260507013523 | 44 | 0.0 | 1.0 | 0.00 | 0.00 | 0.00 | 37 | 1014.9 | |
| 20260507012519 | 44 | 289 | 1.0 | 4.0 | 0.00 | 0.00 | 0.00 | 36 | 1015.0 |
| 20260507011516 | 45 | 284 | 1.0 | 4.0 | 0.00 | 0.00 | 0.00 | 35 | 1014.9 |
| 20260507010528 | 46 | 264 | 1.0 | 6.0 | 0.00 | 0.00 | 0.00 | 36 | 1015.0 |
| 20260507005525 | 46 | 285 | 1.0 | 5.0 | 0.00 | 0.00 | 0.00 | 36 | 1015.0 |
| 20260507004521 | 46 | 294 | 2.0 | 7.0 | 0.00 | 0.00 | 0.00 | 36 | 1015.1 |
| 20260507003518 | 46 | 303 | 2.0 | 5.0 | 0.00 | 0.00 | 0.00 | 36 | 1015.1 |
| 20260507002549 | 46 | 290 | 2.0 | 6.0 | 0.00 | 0.00 | 0.00 | 36 | 1015.2 |
| 20260507001526 | 46 | 338 | 3.0 | 11.0 | 0.00 | 0.00 | 0.00 | 36 | 1015.2 |
| 20260507000523 | 46 | 332 | 3.0 | 6.0 | 0.00 | 0.00 | 0.00 | 35 | 1015.3 |
| 20260506235519 | 46 | 311 | 2.0 | 6.0 | 0.00 | 0.00 | 0.00 | 34 | 1015.3 |
| 20260506234516 | 46 | 217 | 2.0 | 6.0 | 0.00 | 0.00 | 0.00 | 35 | 1015.4 |
| 20260506233528 | 46 | 233 | 2.0 | 11.0 | 0.00 | 0.00 | 0.00 | 35 | 1015.6 |
| 20260506232524 | 47 | 279 | 2.0 | 6.0 | 0.00 | 0.00 | 0.00 | 34 | 1015.6 |
| 20260506231521 | 47 | 273 | 1.0 | 6.0 | 0.00 | 0.00 | 0.00 | 35 | 1015.7 |
| 20260506230517 | 47 | 313 | 3.0 | 9.0 | 0.00 | 0.00 | 0.00 | 35 | 1015.7 |
| 20260506225549 | 47 | 334 | 2.0 | 10.0 | 0.00 | 0.00 | 0.00 | 34 | 1015.7 |
| 20260506224526 | 47 | 312 | 3.0 | 8.0 | 0.00 | 0.00 | 0.00 | 34 | 1015.8 |
| 20260506223522 | 47 | 303 | 2.0 | 7.0 | 0.00 | 0.00 | 0.00 | 34 | 1015.8 |
| 20260506222519 | 47 | 282 | 1.0 | 7.0 | 0.00 | 0.00 | 0.00 | 34 | 1015.8 |
| 20260506221515 | 48 | 313 | 4.0 | 10.0 | 0.00 | 0.00 | 0.00 | 33 | 1016.0 |
| 20260506220527 | 48 | 347 | 2.0 | 4.0 | 0.00 | 0.00 | 0.00 | 34 | 1016.0 |
| 20260506215524 | 48 | 267 | 2.0 | 4.0 | 0.00 | 0.00 | 0.00 | 33 | 1016.1 |
| 20260506214520 | 47 | 302 | 2.0 | 8.0 | 0.00 | 0.00 | 0.00 | 35 | 1016.2 |
| 20260506213517 | 47 | 266 | 2.0 | 7.0 | 0.00 | 0.00 | 0.00 | 36 | 1016.3 |
| 20260506212529 | 46 | 302 | 3.0 | 9.0 | 0.00 | 0.00 | 0.00 | 36 | 1016.3 |
| 20260506211525 | 46 | 301 | 2.0 | 8.0 | 0.00 | 0.00 | 0.00 | 36 | 1016.4 |
| 20260506210542 | 47 | 308 | 3.0 | 9.0 | 0.00 | 0.00 | 0.00 | 36 | 1016.5 |
| 20260506205518 | 46 | 307 | 2.0 | 6.0 | 0.00 | 0.00 | 0.00 | 36 | 1016.6 |
| 20260506204515 | 47 | 262 | 2.0 | 11.0 | 0.00 | 0.00 | 0.00 | 36 | 1016.6 |
| 20260506203527 | 46 | 264 | 2.0 | 4.0 | 0.00 | 0.00 | 0.00 | 36 | 1016.6 |
| 20260506202523 | 46 | 252 | 4.0 | 8.0 | 0.00 | 0.00 | 0.00 | 36 | 1016.7 |
| 20260506201520 | 46 | 309 | 2.0 | 5.0 | 0.00 | 0.00 | 0.00 | 36 | 1016.7 |
| 20260506200517 | 46 | 277 | 2.0 | 8.0 | 0.00 | 0.00 | 0.00 | 37 | 1016.7 |
| 20260506195528 | 45 | 290 | 2.0 | 5.0 | 0.00 | 0.00 | 0.00 | 37 | 1016.7 |
| 20260506194525 | 45 | 292 | 3.0 | 7.0 | 0.00 | 0.00 | 0.00 | 36 | 1016.7 |
| 20260506193602 | 44 | 277 | 1.0 | 5.0 | 0.00 | 0.00 | 0.00 | 36 | 1016.8 |
| 20260506192518 | 44 | 308 | 3.0 | 9.0 | 0.00 | 0.00 | 0.00 | 37 | 1016.8 |
| 20260506191528 | 44 | 291 | 4.0 | 8.0 | 0.00 | 0.00 | 0.00 | 35 | 1016.9 |
| 20260506190525 | 44 | 280 | 1.0 | 8.0 | 0.00 | 0.00 | 0.00 | 36 | 1016.8 |
| 20260506185541 | 44 | 344 | 4.0 | 8.0 | 0.00 | 0.00 | 0.00 | 36 | 1016.8 |
| 20260506184518 | 44 | 343 | 4.0 | 12.0 | 0.00 | 0.00 | 0.00 | 37 | 1016.9 |
| 20260506183535 | 44 | 306 | 3.0 | 10.0 | 0.00 | 0.00 | 0.00 | 37 | 1016.8 |
| 20260506182546 | 44 | 350 | 4.0 | 13.0 | 0.00 | 0.00 | 0.00 | 36 | 1016.8 |
| 20260506181543 | 44 | 272 | 3.0 | 7.0 | 0.00 | 0.00 | 0.00 | 36 | 1016.9 |
| 20260506180519 | 43 | 301 | 3.0 | 8.0 | 0.00 | 0.00 | 0.00 | 37 | 1017.0 |
| 20260506175516 | 45 | 307 | 3.0 | 11.0 | 0.00 | 0.00 | 0.00 | 35 | 1017.0 |
| 20260506174527 | 44 | 306 | 3.0 | 9.0 | 0.00 | 0.00 | 0.00 | 38 | 1016.9 |
| 20260506173604 | 43 | 261 | 3.0 | 12.0 | 0.00 | 0.00 | 0.00 | 38 | 1017.1 |
| 20260506172520 | 44 | 317 | 4.0 | 10.0 | 0.00 | 0.00 | 0.00 | 37 | 1017.2 |
| 20260506171517 | 43 | 287 | 1.0 | 3.0 | 0.00 | 0.00 | 0.00 | 39 | 1017.1 |
| 20260506170529 | 43 | 282 | 1.0 | 5.0 | 0.00 | 0.00 | 0.00 | 40 | 1017.2 |
| 20260506165525 | 42 | 276 | 2.0 | 11.0 | 0.00 | 0.00 | 0.00 | 40 | 1017.3 |
| 20260506164522 | 42 | 309 | 3.0 | 9.0 | 0.00 | 0.00 | 0.00 | 40 | 1017.3 |
| 20260506163519 | 42 | 314 | 3.0 | 9.0 | 0.00 | 0.00 | 0.00 | 40 | 1017.3 |
| 20260506162516 | 42 | 302 | 5.0 | 11.0 | 0.00 | 0.00 | 0.00 | 38 | 1017.2 |
| 20260506161527 | 43 | 357 | 5.0 | 10.0 | 0.00 | 0.00 | 0.00 | 39 | 1017.1 |
| 20260506160524 | 42 | 325 | 3.0 | 9.0 | 0.00 | 0.00 | 0.00 | 39 | 1017.2 |
| 20260506155521 | 42 | 328 | 3.0 | 9.0 | 0.00 | 0.00 | 0.00 | 40 | 1017.1 |
| 20260506154537 | 41 | 309 | 4.0 | 9.0 | 0.00 | 0.00 | 0.00 | 40 | 1017.1 |
| 20260506153529 | 41 | 303 | 5.0 | 11.0 | 0.00 | 0.00 | 0.00 | 40 | 1017.0 |
| 20260506152526 | 42 | 326 | 7.0 | 19.0 | 0.00 | 0.00 | 0.00 | 38 | 1017.0 |
| 20260506151522 | 43 | 306 | 6.0 | 17.0 | 0.00 | 0.00 | 0.00 | 38 | 1016.8 |
| 20260506150519 | 42 | 308 | 8.0 | 17.0 | 0.00 | 0.00 | 0.00 | 39 | 1016.9 |
| 20260506145516 | 41 | 291 | 4.0 | 9.0 | 0.00 | 0.00 | 0.00 | 40 | 1016.9 |